CINEMA-2 (KHUSAT-2)

Last updated on Tue Mar 29 2016 09:38:43 GMT+0000 (Coordinated Universal Time)

1 39424U 13066J 16089.11061470 .00000314 00000-0 54781-4 0 9999 2 39424 97.6797 134.1515 0092232 314.9921 44.3838 14.71869466126221
UTC large
Height (km)
Speed (km/s)
/
Latitude / Longitude
Inclination (degrees)
Orbital Period (minutes)
Azimuth
Elevation
Range (km)
Doppler Factor

Next 0 passes for location: London (51.5072 / 0.1276)

Sorry there are no passes over London.
CINEMA-2 (KHUSAT-2)